Location: Dehesa de la Cepeda
(40.6574°N, 4.3013°W)
Time: 20:49:44
(UTC+00:00)

Vanguard 3 - Pass Details

Date: 08 August 2021
Orbit: 510 x 3260 km, 33.3° (Epoch: 22 September)

Event Time Altitude Azimuth Distance (km) Brightness Sun altitude
Rises 20:17:08 0° 275° (W) 5,752 12.8 -9.8°
Reaches altitude 10° 20:20:31 10° 271° (W) 5,051 12.2 -10.4°
Maximum altitude 20:35:55 55° 200° (SSW) 3,520 10.2 -12.8°
Enters shadow 20:51:51 17° 133° (SE) 5,516 10.7 -15.3°
